Weather in Belsk

Russia / Irkutsk Oblast     52°52′21″N   103°04′40″E
temp.,
°C
wind,
m/s
gust,
m/s
humid.,
%
clouds,
%
prec.,
mm/h
press.,
hPa
HPBL,
m
8 may, sat
sat823:00+2se2288100 0.0 101332
02:00+1ese2891100 0.0 1011203
05:00+2ene2587100 0.3 1011200
08:00+1e1299100 4.1 1015103
11:00+6wnw138271 0.1 1014507
14:00+11nne356714 0.1 1013903
17:00+10nnw1177100 0.1 1012307
20:00+8wsw2489100 0.8 1013117
9 may, sun
sun923:00+7w3795100 0.9 1014288
02:00+6wnw2696100 2.7 1014312
05:00+5ssw2297100 2.0 101357
08:00+8s258567 2.0 1011266
11:00+13sse2363100 0.0 1008853
14:00+14nw6559100 0.4 10081389
17:00+7wnw147943 0.1 1010456
20:00+8wnw3674100 0.2 1011282
10 may, mon
mon1023:00+6w3784100 0.3 1013362
02:00+4wnw4990100 0.3 1014720
05:00+4nw41087100 0.6 1015863
08:00+5nw41077100 0.6 10151024
11:00+6nw6971100 0.3 10151270
14:00+5nw61188100 0.8 10161073
17:00+4wnw51294100 0.2 1017736
20:00+6nw6137999 0.3 1017924
11 may, tue
tue1123:00+5wnw5138062 0.0 1018845
02:00+4nw5128899 0.0 1018710
05:00+4wnw51087100 0.1 1018848
08:00+5wnw51086100 0.1 1019569
11:00+7nw4774100 0.0 1018904
14:00+11nw3547100 0.1 10161912
17:00+10n344971 0.0 10161178
20:00+8n11615 0.0 101510
12 may, wed
wed1223:00+4s11755 0.0 101610
02:00+3sse11835 0.0 101410
05:00+2sw118868 0.0 101310
08:00+5w1274100 0.0 1013176
11:00+8nnw2266100 0.0 1012841
14:00+11wnw235399 0.1 10101512
17:00+11nnw455288 0.3 10091588
20:00+9wnw2466100 0.9 101090